CW8919 Weather Reports


Display with metric or nautical units.
time (UTC)temp
F
wind
direction
speed
MPH
gust
MPH
rain 1hr
in
rain 24hr
in
rain mn
in
humidity
%
barometer
mb
20210804095936 74 328 0.0 0.0 0.00 0.00 0.00 80 1020.6
20210804094438 73 348 0.0 0.0 0.00 0.00 0.00 82 1020.5
20210804092937 72 343 0.0 0.0 0.00 0.00 0.00 83 1020.5
20210804091433 73 330 0.0 0.0 0.00 0.00 0.00 82 1020.5
20210804085922 72 330 0.0 0.0 0.00 0.00 0.00 84 1020.3
20210804084442 72 352 0.0 0.0 0.00 0.00 0.00 84 1020.3
20210804082921 71 357 0.0 0.0 0.00 0.00 0.00 85 1020.2
20210804081423 71 45 0.0 0.0 0.00 0.00 0.00 86 1020.1
20210804075922 71 37 0.0 0.0 0.00 0.00 0.00 86 1019.9
20210804074429 70 8 0.0 0.0 0.00 0.00 0.00 87 1019.7
20210804072926 70 343 0.0 0.0 0.00 0.00 0.00 88 1019.7
20210804071431 70 343 0.0 0.0 0.00 0.00 0.00 88 1019.6
20210804065924 70 110 0.0 0.0 0.00 0.00 0.00 88 1019.4
20210804064426 69 110 0.0 0.0 0.00 0.00 0.00 88 1019.2
20210804062941 69 111 0.0 0.0 0.00 0.00 0.00 89 1019.1
20210804061425 69 105 0.0 0.0 0.00 0.00 0.00 89 1019.0
20210804055925 69 76 0.0 0.0 0.00 0.00 0.00 89 1018.9
20210804054426 68 66 0.0 0.0 0.00 0.00 0.00 89 1019.0
20210804052927 68 357 0.0 0.0 0.00 0.00 0.00 89 1018.9
20210804051429 68 356 0.0 0.0 0.00 0.00 0.00 89 1018.7
20210804045939 69 352 0.0 0.0 0.00 0.00 0.00 89 1018.7
20210804044441 69 42 0.0 0.0 0.00 0.00 0.00 89 1018.5
20210804042923 68 8 0.0 0.0 0.00 0.00 0.00 89 1018.3
20210804041425 68 202 0.0 0.0 0.00 0.00 0.00 89 1018.3
20210804035925 68 75 0.0 0.0 0.00 0.00 0.00 89 1018.2
20210804034431 68 27 0.0 0.0 0.00 0.00 0.00 89 1018.2
20210804032929 68 315 0.0 0.0 0.00 0.00 0.00 89 1018.3
20210804031432 68 275 0.0 0.0 0.00 0.00 0.00 89 1018.3
20210804025926 68 356 0.0 0.0 0.00 0.00 0.00 89 1018.5
20210804024427 68 299 0.0 0.0 0.00 0.00 0.00 89 1018.5
20210804022924 68 337 0.0 0.0 0.00 0.00 0.00 89 1018.7
20210804021431 68 317 0.0 0.0 0.00 0.00 0.00 88 1018.6
20210804015931 68 338 0.0 0.0 0.00 0.00 0.00 88 1018.7
20210804014435 68 350 0.0 0.0 0.00 0.00 0.00 88 1018.6
20210804012936 68 12 0.0 0.0 0.00 0.00 0.00 89 1018.7
20210804011436 68 352 0.0 0.0 0.00 0.00 0.00 88 1019.0
20210804005927 68 352 0.0 0.0 0.00 0.00 0.00 88 1019.0
20210804004434 68 332 0.0 0.0 0.00 0.00 0.00 88 1019.0
20210804002929 68 1 0.0 0.0 0.00 0.00 0.00 88 1019.2
20210804001432 68 343 0.0 0.0 0.00 0.00 0.00 87 1019.4
20210803235937 68 351 0.0 0.0 0.00 0.00 0.00 86 1019.4
20210803234440 68 351 0.0 0.0 0.00 0.00 0.00 85 1019.7
20210803232939 69 337 0.0 0.0 0.00 0.00 0.00 85 1019.5
20210803231426 69 330 0.0 0.0 0.00 0.00 0.00 84 1019.6
20210803225935 69 330 0.0 0.0 0.00 0.00 0.00 84 1019.6
20210803224436 68 20 0.0 0.0 0.00 0.00 0.00 84 1019.8
20210803222934 68 360 0.0 0.0 0.00 0.00 0.00 83 1019.8
20210803221439 68 357 0.0 0.0 0.00 0.00 0.00 83 1019.8
20210803215939 68 355 0.0 0.0 0.00 0.00 0.00 82 1019.6
20210803214441 69 13 0.0 0.0 0.00 0.00 0.00 82 1019.8
20210803212922 69 341 0.0 0.0 0.00 0.00 0.00 81 1019.7
20210803211431 68 320 0.0 0.0 0.00 0.00 0.00 81 1019.5
20210803205941 68 23 0.0 0.0 0.00 0.00 0.00 81 1019.4
20210803204426 68 334 0.0 0.0 0.00 0.00 0.00 81 1019.4
20210803202922 68 349 0.0 0.0 0.00 0.00 0.00 81 1019.2
20210803201423 68 343 0.0 0.0 0.00 0.00 0.00 80 1019.2
20210803195922 68 10 0.0 0.0 0.00 0.00 0.00 79 1018.8
20210803194429 69 328 0.0 0.0 0.00 0.00 0.00 77 1018.5
20210803192924 69 336 0.0 0.0 0.00 0.00 0.00 77 1018.2
20210803191425 69 339 0.0 0.0 0.00 0.00 0.00 75 1017.6
20210803185932 70 308 0.0 0.0 0.00 0.00 0.00 74 1017.3
20210803184439 70 5 0.0 0.0 0.00 0.00 0.00 72 1017.5
20210803182935 71 353 0.0 0.0 0.00 0.00 0.00 72 1017.5
20210803181438 72 340 0.0 0.0 0.00 0.00 0.00 70 1017.3
20210803175923 73 349 0.0 0.0 0.00 0.00 0.00 68 1017.1
20210803174424 74 274 0.0 0.0 0.00 0.00 0.00 66 1017.1
20210803172940 75 336 0.0 0.0 0.00 0.00 0.00 63 1017.0
20210803171425 75 325 0.0 0.0 0.00 0.00 0.00 64 1017.0
20210803165939 75 355 0.0 0.0 0.00 0.00 0.00 63 1017.0
20210803164440 75 305 0.0 0.0 0.00 0.00 0.00 63 1017.1
20210803162934 77 320 0.0 0.0 0.00 0.00 0.00 56 1017.2
20210803161440 77 355 0.0 0.0 0.00 0.00 0.00 57 1017.2
20210803155940 77 295 0.0 0.0 0.00 0.00 0.00 57 1017.0
20210803154442 77 326 0.0 0.0 0.00 0.00 0.00 57 1017.3
20210803152956 77 359 0.0 0.0 0.00 0.00 0.00 59 1017.2
20210803151430 80 340 0.0 0.0 0.00 0.00 0.00 55 1017.4
20210803145932 80 338 0.0 0.0 0.00 0.00 0.00 54 1017.3
20210803144434 80 15 0.0 0.0 0.00 0.00 0.00 56 1017.5
20210803142933 80 15 0.0 0.0 0.00 0.00 0.00 56 1017.5
20210803141426 79 16 0.0 0.0 0.00 0.00 0.00 57 1017.7
20210803135924 79 20 0.0 0.0 0.00 0.00 0.00 58 1017.7
20210803134429 79 14 0.0 0.0 0.00 0.00 0.00 58 1017.9
20210803132927 80 322 0.0 0.0 0.00 0.00 0.00 57 1017.9
20210803131428 79 320 0.0 0.0 0.00 0.00 0.00 59 1017.9
20210803125922 81 271 0.0 0.0 0.00 0.00 0.00 55 1017.9
20210803124423 81 348 0.0 0.0 0.00 0.00 0.00 54 1018.2
20210803122922 80 349 0.0 0.0 0.00 0.00 0.00 57 1018.3
20210803121429 80 353 0.0 0.0 0.00 0.00 0.00 58 1018.4
20210803115928 79 347 0.0 0.0 0.00 0.04 0.00 59 1018.5
20210803114428 78 360 0.0 0.0 0.00 0.04 0.00 60 1018.5
20210803112929 77 3 0.0 0.0 0.00 0.04 0.00 60 1018.4
20210803111430 77 29 0.0 0.0 0.00 0.04 0.00 64 1018.4
20210803105938 76 8 0.0 0.0 0.00 0.04 0.00 64 1018.6
20210803104423 76 341 0.0 0.0 0.00 0.04 0.00 64 1018.7
20210803102924 75 305 0.0 0.0 0.00 0.04 0.00 67 1018.7
20210803101425 74 47 0.0 0.0 0.00 0.04 0.00 68 1018.8